This is the latest recevied weather packets stored in our database for station/object IZ1OSY-3. If no packets are shown the sender has not sent any weather packets the latest 10 day(s).
| Time | Temp. | Humidity | Pressure | Rain* | Wind** | Luminosity | Snow |
|---|---|---|---|---|---|---|---|
| 1777237871 | 12.78° C | 62% | 1019.3 hPa | - | - | - | - |
| 1777235469 | 13.33° C | 59% | 1019.1 hPa | - | - | - | - |
| 1777234268 | 13.33° C | 57% | 1018.9 hPa | - | - | - | - |
| 1777233972 | 13.33° C | 58% | 1018.9 hPa | - | - | - | - |
| 1777233068 | 13.33° C | 62% | 1018.8 hPa | - | - | - | - |
| 1777232771 | 13.33° C | 61% | 1018.7 hPa | - | - | - | - |
| 1777230673 | 13.33° C | 63% | 1018.5 hPa | - | - | - | - |
| 1777230369 | 13.89° C | 61% | 1018.5 hPa | - | - | - | - |
| 1777228264 | 14.44° C | 61% | 1018.1 hPa | - | - | - | - |
| 1777227063 | 15.56° C | 65% | 1018 hPa | - | - | - | - |
| 1777226767 | 15.56° C | 65% | 1017.9 hPa | - | - | - | - |
| 1777225862 | 16.11° C | 65% | 1017.9 hPa | - | - | - | - |
| 1777225566 | 16.11° C | 64% | 1017.9 hPa | - | - | - | - |
| 1777224661 | 16.11° C | 66% | 1017.8 hPa | - | - | - | - |
| 1777224365 | 15.56° C | 65% | 1017.8 hPa | - | - | - | - |
| 1777223461 | 16.11° C | 66% | 1017.8 hPa | - | - | - | - |
| 1777223164 | 16.11° C | 66% | 1017.9 hPa | - | - | - | - |
| 1777222260 | 16.11° C | 66% | 1017.9 hPa | - | - | - | - |
| 1777221964 | 16.67° C | 68% | 1017.9 hPa | - | - | - | - |
| 1777221059 | 16.67° C | 67% | 1017.9 hPa | - | - | - | - |
| 1777220763 | 16.67° C | 69% | 1017.9 hPa | - | - | - | - |
| 1777219858 | 16.11° C | 71% | 1018.1 hPa | - | - | - | - |
| 1777218657 | 16.67° C | 73% | 1018.2 hPa | - | - | - | - |
| 1777218361 | 16.11° C | 75% | 1018.2 hPa | - | - | - | - |
| 1777217456 | 16.67° C | 73% | 1018.2 hPa | - | - | - | - |
* Rain since midnight (hover to see other rain measurements)
** Current wind speed in m/s (hover to see current wind gust speed)